Pensacola, FL

1:42 AM CDT on September 20, 2017 (GMT -0500)
Pensacola Regional

Weather History for KPNS - June, 2012

Change the Weather History Date:

Saturday, June 9, 2012

  Actual Average Record
Temperature  
Mean Temperature 73 °F 80 °F  
Max Temperature 78 °F 88 °F 97 °F (2006)
Min Temperature 68 °F 72 °F 61 °F (1977)
Cooling Degree Days 8 15  
Month to date cooling degree days 141 127  
Year to date cooling degree days 943 575  
Since 1 June cooling degree days 141 127  
Growing Degree Days 23 (Base 50)    
Moisture  
Dew Point 71 °F    
Average Humidity 85    
Maximum Humidity 93    
Minimum Humidity 76    
Precipitation  
Precipitation 13.13 in 0.20 in 13.13 in (2012)
Month to date precipitation 13.71 1.66  
Year to date precipitation 31.91 25.66  
Sea Level Pressure  
Sea Level Pressure 29.90 in    
Wind  
Wind Speed 8 mph (ENE)    
Max Wind Speed 25 mph    
Max Gust Speed 33 mph    
Visibility 4 miles    
Events Fog , Rain , Thunderstorm    
T = Trace of Precipitation, MM = Missing Value Source: NWS Daily Summary

Daily Weather History Graph

Daily Weather History Graph

Search for Another Location

Airport or City:

Trip Planner

Search our weather history database for the weather conditions in past years. The results will help you decide how hot, cold, wet, or windy it might be!

Date:

Astronomy

Jun. 09, 2012 Rise Set
Actual Time 5:45 AM CDT 7:50 PM CDT
Civil Twilight 5:18 AM CDT 8:17 PM CDT
Nautical Twilight 4:45 AM CDT 8:51 PM CDT
Astronomical Twilight 4:09 AM CDT 9:27 PM CDT
Moon No Moon Rise 11:12 AM CDT (6/9)
Length of Visible Light 14h 59m
Length of Day
14h 04m
Waning Gibbous, 68% of the Moon is Illuminated
Jun 9
Waning Gibbous
Jun 11
Last Quarter
Jun 19
New
Jun 26
First Quarter
Jul 3
Full

Hourly Weather History & Observations

Time (CDT) Temp. Dew Point Humidity Pressure Visibility Wind Dir Wind Speed Gust Speed Precip Events Conditions
12:53 AM 77.0 °F 69.1 °F 76% 29.92 in 10.0 mi East 12.7 mph 19.6 mph N/A   Overcast
1:53 AM 75.9 °F 69.1 °F 79% 29.91 in 10.0 mi East 10.4 mph - 0.00 in   Mostly Cloudy
2:10 AM 75.2 °F 69.8 °F 83% 29.91 in 6.0 mi SE 18.4 mph 25.3 mph 0.01 in Rain Rain
2:28 AM 73.4 °F 69.8 °F 88% 29.90 in 4.0 mi ESE 11.5 mph - 0.06 in Rain Rain
2:53 AM 73.0 °F 70.0 °F 90% 29.90 in 6.0 mi East 8.1 mph - 0.12 in Rain Light Rain
3:30 AM 73.4 °F 71.6 °F 94% 29.90 in 10.0 mi East 6.9 mph - 0.01 in Rain Light Rain
3:53 AM 73.9 °F 71.1 °F 91% 29.91 in 7.0 mi East 10.4 mph - 0.03 in Rain Light Rain
4:53 AM 73.0 °F 70.0 °F 90% 29.91 in 9.0 mi East 8.1 mph - 0.02 in Rain Light Rain
5:48 AM 73.4 °F 71.6 °F 94% 29.90 in 5.0 mi East 8.1 mph - 0.10 in Rain , Thunderstorm Light Thunderstorms and Rain
5:53 AM 73.0 °F 71.1 °F 93% 29.91 in 6.0 mi East 8.1 mph - 0.11 in Rain , Thunderstorm Light Thunderstorms and Rain
6:53 AM 73.0 °F 71.1 °F 93% 29.93 in 3.0 mi East 5.8 mph - 0.09 in Rain , Thunderstorm Thunderstorms and Rain
7:01 AM 73.4 °F 71.6 °F 94% 29.92 in 2.5 mi East 8.1 mph - 0.05 in Rain , Thunderstorm Heavy Thunderstorms and Rain
7:14 AM 73.4 °F 71.6 °F 94% 29.91 in 4.0 mi ENE 9.2 mph - 0.11 in Rain , Thunderstorm Thunderstorms and Rain
7:49 AM 73.4 °F 71.6 °F 94% 29.91 in 2.0 mi East 10.4 mph - 0.20 in Rain , Thunderstorm Heavy Thunderstorms and Rain
7:53 AM 73.0 °F 71.1 °F 93% 29.92 in 1.5 mi East 9.2 mph - 0.24 in Rain , Thunderstorm Heavy Thunderstorms and Rain
8:31 AM 73.4 °F 71.6 °F 94% 29.93 in 0.5 mi East 11.5 mph - 0.77 in Fog , Rain , Thunderstorm Heavy Thunderstorms and Rain
8:51 AM 73.4 °F 71.6 °F 94% 29.92 in 1.5 mi ENE 8.1 mph - 1.27 in Rain , Thunderstorm Heavy Thunderstorms and Rain
8:53 AM 73.0 °F 71.1 °F 93% 29.92 in 1.5 mi ENE 9.2 mph - 1.27 in Rain , Thunderstorm Heavy Thunderstorms and Rain
9:11 AM 73.4 °F 71.6 °F 94% 29.93 in 0.5 mi ENE 10.4 mph 23.0 mph 0.43 in Fog , Rain , Thunderstorm Heavy Thunderstorms and Rain
9:31 AM 73.4 °F 71.6 °F 94% 29.92 in 1.0 mi NE 9.2 mph - 1.02 in Rain , Thunderstorm Heavy Thunderstorms and Rain
9:41 AM 73.4 °F 71.6 °F 94% 29.93 in 1.2 mi NNE 8.1 mph 16.1 mph 1.19 in Rain , Thunderstorm Thunderstorms and Rain
9:45 AM 73.4 °F 71.6 °F 94% 29.93 in 2.0 mi NNE 10.4 mph 16.1 mph 1.21 in Rain , Thunderstorm Heavy Thunderstorms and Rain
9:53 AM 73.0 °F 71.1 °F 93% 29.94 in 1.8 mi NNE 10.4 mph - 1.33 in Rain , Thunderstorm Heavy Thunderstorms and Rain
9:57 AM 73.4 °F 71.6 °F 94% 29.93 in 2.5 mi North 11.5 mph - 0.01 in Rain , Thunderstorm Thunderstorms and Rain
10:00 AM 73.4 °F 71.6 °F 94% 29.93 in 4.0 mi NE 8.1 mph - 0.02 in Rain , Thunderstorm Heavy Thunderstorms and Rain
10:13 AM 73.4 °F 71.6 °F 94% 29.93 in 2.5 mi North 13.8 mph - 0.08 in Rain , Thunderstorm Thunderstorms and Rain
10:21 AM 73.4 °F 71.6 °F 94% 29.92 in 6.0 mi North 16.1 mph 23.0 mph 0.09 in Rain , Thunderstorm Thunderstorms and Rain
10:38 AM 73.4 °F 71.6 °F 94% 29.91 in 4.0 mi NNE 15.0 mph 21.9 mph 0.13 in Rain , Thunderstorm Thunderstorms and Rain
10:53 AM 73.0 °F 71.1 °F 93% 29.91 in 8.0 mi North 15.0 mph 23.0 mph 0.14 in Rain , Thunderstorm Thunderstorms and Rain
11:11 AM 73.4 °F 71.6 °F 94% 29.93 in 1.8 mi NNE 11.5 mph 21.9 mph 0.07 in Rain , Thunderstorm Thunderstorms and Rain
11:16 AM 73.4 °F 71.6 °F 94% 29.93 in 0.5 mi NNE 9.2 mph 21.9 mph 0.34 in Rain , Thunderstorm Thunderstorms and Rain
11:23 AM 73.4 °F 71.6 °F 94% 29.94 in 0.2 mi North 9.2 mph - 0.74 in Rain , Thunderstorm Thunderstorms and Rain
11:53 AM 73.0 °F 71.1 °F 93% 29.93 in 0.2 mi ENE 10.4 mph - 3.17 in Rain , Thunderstorm Thunderstorms and Rain
12:11 PM 73.4 °F 71.6 °F 94% 29.91 in 0.5 mi East 16.1 mph 23.0 mph 1.12 in Rain , Thunderstorm Thunderstorms and Rain
12:19 PM 73.4 °F 71.6 °F 94% 29.89 in 1.5 mi NE 10.4 mph 23.0 mph 1.17 in Rain , Thunderstorm Thunderstorms and Rain
12:29 PM 71.6 °F 69.8 °F 94% 29.91 in 3.0 mi East 12.7 mph 21.9 mph 1.21 in Rain , Thunderstorm Thunderstorms and Rain
12:33 PM 71.6 °F 69.8 °F 94% 29.91 in 1.5 mi Variable 4.6 mph 20.7 mph 1.22 in Rain , Thunderstorm Thunderstorms and Rain
12:53 PM 73.0 °F 71.1 °F 93% 29.90 in 1.5 mi East 10.4 mph 17.3 mph 1.37 in Rain , Thunderstorm Thunderstorms and Rain
1:01 PM 73.4 °F 71.6 °F 94% 29.89 in 3.0 mi ENE 6.9 mph - 0.04 in Rain , Thunderstorm Thunderstorms and Rain
1:21 PM 73.4 °F 71.6 °F 94% 29.89 in 3.0 mi ENE 4.6 mph - 0.07 in Rain , Thunderstorm Thunderstorms and Rain
1:25 PM 73.4 °F 71.6 °F 94% 29.89 in 1.8 mi NE 6.9 mph - 0.08 in Rain , Thunderstorm Thunderstorms and Rain
1:30 PM 73.4 °F 71.6 °F 94% 29.89 in 0.8 mi NNE 13.8 mph 19.6 mph 0.17 in Rain , Thunderstorm Thunderstorms and Rain
1:42 PM 73.4 °F 71.6 °F 94% 29.88 in 0.2 mi NE 11.5 mph 21.9 mph 0.82 in Rain , Thunderstorm Thunderstorms and Rain
1:53 PM 73.0 °F 71.1 °F 93% 29.89 in 0.2 mi Variable 6.9 mph 17.3 mph 1.30 in Rain , Thunderstorm Thunderstorms and Rain
2:23 PM 73.4 °F 71.6 °F 94% 29.87 in 0.5 mi NNE 13.8 mph 25.3 mph 1.71 in Rain , Thunderstorm Thunderstorms and Rain
2:29 PM 73.4 °F 71.6 °F 94% 29.87 in 1.0 mi North 10.4 mph 23.0 mph 1.80 in Rain , Thunderstorm Thunderstorms and Rain
2:53 PM 73.0 °F 72.0 °F 96% 29.88 in 0.2 mi NNE 12.7 mph 19.6 mph 2.49 in Rain , Thunderstorm Thunderstorms and Rain
2:57 PM 71.6 °F 71.6 °F 100% 29.88 in 0.5 mi North 25.3 mph 31.1 mph 0.19 in Rain , Thunderstorm Thunderstorms and Rain
3:41 PM 69.8 °F 68.0 °F 94% 29.88 in 2.0 mi NE 6.9 mph - 1.28 in Rain Light Rain
3:53 PM 72.0 °F 69.1 °F 91% 29.88 in 5.0 mi NNE 8.1 mph - 1.31 in   Overcast
4:53 PM 72.0 °F 68.0 °F 87% 29.88 in 10.0 mi South 4.6 mph - 0.11 in Rain Light Rain
5:49 PM 75.2 °F 71.6 °F 89% 29.85 in 10.0 mi SSE 8.1 mph - 0.02 in Rain Light Rain
5:53 PM 75.0 °F 72.0 °F 90% 29.85 in 10.0 mi SSE 9.2 mph - 0.02 in   Scattered Clouds
6:53 PM 73.9 °F 70.0 °F 87% 29.83 in 10.0 mi East 3.5 mph - 0.01 in   Clear
7:53 PM 73.0 °F 70.0 °F 90% 29.88 in 10.0 mi South 3.5 mph - N/A   Clear
8:53 PM 73.9 °F 71.1 °F 91% 29.89 in 10.0 mi South 4.6 mph - N/A   Clear
9:53 PM 75.0 °F 71.1 °F 87% 29.90 in 10.0 mi SE 6.9 mph - N/A   Partly Cloudy
10:53 PM 77.0 °F 71.1 °F 82% 29.91 in 10.0 mi SSE 9.2 mph - N/A   Scattered Clouds
11:42 PM 77.0 °F 71.6 °F 83% 29.90 in 10.0 mi SSE 10.4 mph - N/A   Mostly Cloudy
11:53 PM 77.0 °F 72.0 °F 84% 29.91 in 10.0 mi SSE 10.4 mph - N/A   Scattered Clouds